[[{"header":{"parameterUnit":"m.s-1","parameterCategory":1,"la1":30.2991,"la2":30.254,"lo1":-89.0895,"lo2":-89.0444,"dy":0.0017,"dx":0.0017,"nx":28,"ny":28,"refTime":"2024-10-01T03:00:00:Z","depth":0,"parameterNumber":2,"parameterNumberName":"U-component_of_WINDS"},"data":[0,0,0,0,0,0,0,0,0,0,0,0,0,0,0,0,0,0,0,0,0,0,0,0,0,0,0,0,0,0,0,0,0,0,0,0,0,0,0,0,0,0,0,0,0,0,0,0,0,0,0,0,0,0,0,0,0,0,-0.1909,-0.1908,0,-0.1851,-0.185,-0.1849,-0.1826,-0.1826,-0.1826,-0.1826,-0.1764,-0.1763,-0.1761,0,0,0,0,0,0,0,0,0,0,0,0,0,-0.1998,-0.1996,-0.1909,-0.1908,-0.1908,-0.1851,-0.185,-0.1849,-0.1826,-0.1826,-0.1826,-0.1826,-0.1765,-0.1763,-0.1761,0,0,0,0,0,0,0,0,0,0,0,0,0,-0.1951,-0.1996,-0.1909,-0.1889,-0.1887,-0.1851,-0.185,-0.1849,-0.1826,-0.1826,-0.1826,-0.1826,-0.1766,-0.1763,-0.176,-0.1739,0,0,-0.1752,-0.1751,0,0,0,0,0,0,0,0,-0.1954,-0.1948,-0.1893,-0.1891,-0.1888,-0.1846,-0.1858,-0.1812,-0.1826,-0.1849,-0.1826,-0.1826,-0.1791,-0.1786,-0.1775,-0.1736,-0.1734,-0.1752,-0.175,-0.1749,-0.1748,0,0,0,0,0,0,0,-0.1957,-0.195,-0.1886,-0.1892,-0.1889,-0.1882,-0.1876,-0.1849,-0.1819,-0.1847,-0.1845,-0.1839,-0.179,-0.1777,-0.1773,-0.1733,-0.1752,-0.175,-0.1748,-0.1747,-0.1672,-0.1672,0,0,0,0,0,0,-0.1964,-0.1953,-0.1888,-0.1884,-0.1922,-0.188,-0.1873,-0.1859,-0.182,-0.1814,-0.1838,-0.1838,-0.1782,-0.1776,-0.1771,-0.1742,-0.1749,-0.1747,-0.1745,-0.1673,-0.1672,-0.1672,0,0,0,0,0,0,-0.1966,-0.1958,-0.189,-0.1918,-0.1909,-0.1879,-0.1863,-0.1858,-0.1845,-0.1813,-0.1808,-0.1832,-0.1782,-0.1775,-0.1747,-0.174,-0.1745,-0.1743,-0.1673,-0.1672,-0.1672,-0.1686,0,0,0,0,0,0,-0.1969,-0.1959,-0.1952,-0.1918,-0.1908,-0.1868,-0.1862,-0.1856,-0.1841,-0.184,-0.1805,-0.18,-0.1782,-0.1751,-0.1744,-0.1736,-0.1741,-0.1673,-0.1673,-0.1672,-0.1686,-0.1686,-0.1686,0,0,0,0,0,-0.1972,-0.1958,-0.1952,-0.1944,-0.1898,-0.1868,-0.1862,-0.1841,-0.1841,-0.1832,-0.1811,-0.1801,-0.1742,-0.1749,-0.1741,-0.1732,-0.1674,-0.1673,-0.1672,-0.1686,-0.1686,-0.1686,0,0,0,0,0,0,-0.1991,-0.1953,-0.1946,-0.1921,-0.1898,-0.1864,-0.1853,-0.1842,-0.1819,-0.1818,-0.1793,-0.1786,-0.176,-0.1743,-0.1751,-0.1708,-0.1707,-0.1705,-0.172,-0.172,-0.172,-0.1724,-0.1739,0,0,0,0,0,-0.1993,-0.1973,-0.194,-0.1921,-0.191,-0.1884,-0.187,-0.1856,-0.1831,-0.1821,-0.1798,-0.1774,-0.1749,-0.1734,-0.171,-0.1684,-0.1675,-0.1674,-0.1674,-0.1674,-0.1672,-0.1655,-0.1654,-0.1669,-0.1669,-0.1669,0,0,-0.1996,-0.1972,-0.1961,-0.1925,-0.1905,-0.1884,-0.1876,-0.1854,-0.1837,-0.1817,-0.179,-0.1772,-0.1743,-0.1715,-0.1702,-0.1701,-0.1665,-0.1673,-0.1673,-0.1671,-0.1654,-0.1653,-0.1651,-0.1668,-0.1668,-0.1669,0,0,-0.199,-0.1971,-0.1952,-0.1933,-0.1903,-0.1885,-0.1881,-0.1848,-0.1836,-0.1808,-0.1792,-0.1772,-0.1731,-0.171,-0.1694,-0.1679,-0.1668,-0.1671,-0.1671,-0.1655,-0.1654,-0.1653,-0.1646,-0.1644,-0.167,-0.167,-0.167,0,-0.1997,-0.1965,-0.1944,-0.1922,-0.1906,-0.1887,-0.1868,-0.185,-0.1814,-0.1802,-0.1801,-0.1748,-0.1727,-0.1694,-0.169,-0.1679,-0.1672,-0.1675,-0.1656,-0.1655,-0.1653,-0.1646,-0.1644,-0.167,-0.167,-0.167,-0.167,0,-0.1974,-0.1952,-0.194,-0.1906,-0.1889,-0.1868,-0.1843,-0.1827,-0.1815,-0.1797,-0.1767,-0.1741,-0.1711,-0.1702,-0.169,-0.1667,-0.1667,-0.1661,-0.1659,-0.1653,-0.1646,-0.1643,-0.1671,-0.1671,-0.1671,-0.1671,0,0,-0.198,-0.1933,-0.1929,-0.1913,-0.1879,-0.186,-0.1838,-0.1809,-0.1796,-0.1771,-0.1751,-0.1716,-0.171,-0.1692,-0.1677,-0.1663,-0.1651,-0.1659,-0.1658,-0.1658,-0.1622,-0.1626,-0.1624,-0.1643,-0.1643,-0.1642,-0.1624,0,-0.1968,-0.1929,-0.1909,-0.1877,-0.1856,-0.1837,-0.1817,-0.1793,-0.1775,-0.1754,-0.1733,-0.1709,-0.1704,-0.1692,-0.1678,-0.1656,-0.1643,-0.1657,-0.1623,-0.1622,-0.1631,-0.162,-0.1625,-0.1609,-0.1622,-0.1621,-0.1621,0,-0.195,-0.1926,-0.1893,-0.1859,-0.1849,-0.1832,-0.1803,-0.1783,-0.1754,-0.1742,-0.1721,-0.1706,-0.1681,-0.1681,-0.1644,-0.1654,-0.1639,-0.1626,-0.1625,-0.162,-0.1621,-0.1615,-0.1603,-0.1601,-0.1617,-0.1617,-0.1617,0,-0.1956,-0.1915,-0.189,-0.1876,-0.1837,-0.1825,-0.1808,-0.178,-0.1763,-0.1737,-0.1726,-0.1697,-0.1681,-0.1659,-0.1635,-0.1638,-0.1601,-0.1599,-0.1589,-0.1589,-0.1582,-0.1583,-0.1567,-0.1573,-0.1573,-0.1574,-0.1574,0,-0.1946,-0.1926,-0.1892,-0.1876,-0.1852,-0.1828,-0.1806,-0.1787,-0.1762,-0.1741,-0.1723,-0.1703,-0.1675,-0.1651,-0.1633,-0.1605,-0.1598,-0.1586,-0.1582,-0.1588,-0.1589,-0.1577,-0.1577,-0.1573,-0.1573,-0.1573,-0.1573,0,-0.1949,-0.1925,-0.1896,-0.1861,-0.1851,-0.1835,-0.1805,-0.1788,-0.1769,-0.1742,-0.1735,-0.1704,-0.1675,-0.165,-0.1613,-0.16,-0.1571,-0.1565,-0.1581,-0.1578,-0.1569,-0.157,-0.1545,-0.1539,-0.155,-0.155,-0.155,0,-0.1944,-0.1928,-0.1891,-0.1876,-0.1859,-0.1835,-0.1817,-0.1793,-0.1775,-0.1741,-0.1728,-0.1698,-0.1673,-0.1627,-0.1601,-0.1571,-0.1565,-0.1558,-0.156,-0.1566,-0.1563,-0.1564,-0.1562,-0.1558,-0.1558,-0.1558,-0.1558,0,-0.1936,-0.1925,-0.1901,-0.1872,-0.1852,-0.1828,-0.1803,-0.1792,-0.1762,-0.1743,-0.1714,-0.1694,-0.1655,-0.1625,-0.1592,-0.1573,-0.156,-0.1557,-0.1553,-0.1559,-0.1568,-0.1562,-0.158,-0.1558,-0.1558,-0.1558,-0.1558,-0.1558,-0.1934,-0.1919,-0.189,-0.1863,-0.1842,-0.1819,-0.1801,-0.1779,-0.1754,-0.1721,-0.1708,-0.1677,-0.1647,-0.1602,-0.1583,-0.1558,-0.1556,-0.155,-0.1549,-0.1547,-0.1548,-0.1572,-0.1552,-0.1552,-0.1552,-0.1552,-0.1552,0,-0.1925,-0.1905,-0.1881,-0.1847,-0.1826,-0.1815,-0.1787,-0.177,-0.1743,-0.1717,-0.1692,-0.1657,-0.1628,-0.1599,-0.1567,-0.1553,-0.1546,-0.1545,-0.1546,-0.1541,-0.1552,-0.1559,-0.1551,-0.1551,-0.1551,-0.1551,-0.1551,-0.1551,-0.1918,-0.1891,-0.1876,-0.1837,-0.1817,-0.1787,-0.1772,-0.175,-0.1729,-0.1691,-0.1666,-0.1648,-0.1619,-0.1586,-0.1557,-0.1549,-0.1538,-0.1539,-0.1529,-0.154,-0.1541,-0.1541,-0.1547,-0.1537,-0.1537,-0.152,-0.152,-0.152]},{"header":{"parameterUnit":"m.s-1","parameterCategory":1,"la1":30.2991,"la2":30.254,"lo1":-89.0895,"lo2":-89.0444,"dy":0.0017,"dx":0.0017,"nx":28,"ny":28,"refTime":"2024-10-01T03:00:00:Z","depth":0,"parameterNumber":3,"parameterNumberName":"V-component_of_WINDS"},"data":[0,0,0,0,0,0,0,0,0,0,0,0,0,0,0,0,0,0,0,0,0,0,0,0,0,0,0,0,0,0,0,0,0,0,0,0,0,0,0,0,0,0,0,0,0,0,0,0,0,0,0,0,0,0,0,0,0,0,-2.775,-2.775,0,-2.7693,-2.7692,-2.7691,-2.7703,-2.7704,-2.7705,-2.7707,-2.7642,-2.7639,-2.7636,0,0,0,0,0,0,0,0,0,0,0,0,0,-2.7869,-2.7867,-2.7751,-2.775,-2.7749,-2.7693,-2.7692,-2.7691,-2.7703,-2.7704,-2.7706,-2.7707,-2.7642,-2.7639,-2.7636,0,0,0,0,0,0,0,0,0,0,0,0,0,-2.7815,-2.7866,-2.7751,-2.7748,-2.7748,-2.7693,-2.7692,-2.7691,-2.7703,-2.7704,-2.7706,-2.7708,-2.7643,-2.764,-2.7635,-2.7577,0,0,-2.7623,-2.7621,0,0,0,0,0,0,0,0,-2.7818,-2.781,-2.7749,-2.7749,-2.7748,-2.7707,-2.771,-2.7653,-2.7702,-2.772,-2.7707,-2.7708,-2.7662,-2.7656,-2.7641,-2.7574,-2.7572,-2.7623,-2.762,-2.7618,-2.7617,0,0,0,0,0,0,0,-2.7822,-2.7813,-2.7727,-2.7749,-2.7747,-2.775,-2.7744,-2.7699,-2.7682,-2.7718,-2.7719,-2.7712,-2.7661,-2.7645,-2.764,-2.7571,-2.7623,-2.7619,-2.7616,-2.7615,-2.7457,-2.7455,0,0,0,0,0,0,-2.7827,-2.7816,-2.7729,-2.7726,-2.7788,-2.7746,-2.7739,-2.7718,-2.7683,-2.7679,-2.7711,-2.7713,-2.7652,-2.7645,-2.7638,-2.757,-2.7618,-2.7614,-2.7612,-2.7459,-2.7457,-2.7455,0,0,0,0,0,0,-2.7829,-2.7819,-2.7732,-2.7771,-2.776,-2.7742,-2.7718,-2.7716,-2.77,-2.7677,-2.7674,-2.7698,-2.7653,-2.7644,-2.7594,-2.7568,-2.7613,-2.7609,-2.7461,-2.7458,-2.7456,-2.7433,0,0,0,0,0,0,-2.7833,-2.782,-2.7798,-2.7771,-2.7758,-2.7689,-2.7717,-2.7714,-2.7694,-2.7696,-2.7664,-2.766,-2.7653,-2.76,-2.759,-2.7563,-2.7606,-2.7463,-2.746,-2.7457,-2.7436,-2.743,-2.7425,0,0,0,0,0,-2.7837,-2.7792,-2.7797,-2.7786,-2.7731,-2.7688,-2.768,-2.7675,-2.7692,-2.767,-2.7656,-2.7661,-2.7573,-2.7595,-2.7583,-2.7555,-2.7465,-2.7461,-2.7457,-2.7439,-2.7431,-2.7425,0,0,0,0,0,0,-2.7813,-2.7788,-2.7793,-2.7738,-2.7715,-2.769,-2.7661,-2.7667,-2.7637,-2.764,-2.7633,-2.7625,-2.7575,-2.756,-2.7585,-2.7499,-2.7521,-2.7515,-2.7511,-2.7504,-2.7498,-2.7503,-2.7602,0,0,0,0,0,-2.7802,-2.7771,-2.775,-2.7703,-2.7692,-2.7679,-2.766,-2.7658,-2.7633,-2.7623,-2.7605,-2.7579,-2.7546,-2.7524,-2.7492,-2.7434,-2.7428,-2.741,-2.7404,-2.74,-2.7394,-2.7366,-2.7358,-2.7442,-2.7442,-2.7442,0,0,-2.7777,-2.776,-2.774,-2.7698,-2.768,-2.7648,-2.767,-2.7633,-2.7609,-2.7616,-2.757,-2.7556,-2.7527,-2.7474,-2.745,-2.746,-2.737,-2.7395,-2.7391,-2.7388,-2.7361,-2.7353,-2.7346,-2.744,-2.744,-2.744,0,0,-2.7717,-2.77,-2.7661,-2.7644,-2.7618,-2.7611,-2.7601,-2.7576,-2.7568,-2.7521,-2.7527,-2.7498,-2.744,-2.742,-2.7402,-2.7339,-2.7344,-2.7329,-2.73,-2.7272,-2.7266,-2.726,-2.7239,-2.7232,-2.7324,-2.7323,-2.7323,0,-2.769,-2.7642,-2.764,-2.7605,-2.7587,-2.7595,-2.7556,-2.7539,-2.7502,-2.749,-2.7502,-2.7433,-2.7413,-2.7358,-2.7343,-2.7328,-2.7318,-2.7332,-2.7267,-2.7261,-2.7255,-2.7236,-2.7228,-2.7322,-2.7322,-2.7322,-2.7322,0,-2.7611,-2.7578,-2.7549,-2.7518,-2.7497,-2.746,-2.7452,-2.7431,-2.7432,-2.7423,-2.7376,-2.7355,-2.732,-2.7306,-2.7305,-2.7251,-2.7259,-2.7269,-2.7291,-2.7246,-2.7228,-2.722,-2.732,-2.732,-2.7321,-2.7321,0,0,-2.7531,-2.7503,-2.7493,-2.748,-2.7454,-2.7428,-2.7392,-2.7361,-2.7344,-2.7319,-2.7289,-2.7242,-2.7253,-2.7233,-2.723,-2.7206,-2.7161,-2.722,-2.7219,-2.7211,-2.7103,-2.7096,-2.7087,-2.7164,-2.7163,-2.7162,-2.7106,0,-2.747,-2.7409,-2.7408,-2.7351,-2.7322,-2.7331,-2.73,-2.7281,-2.7272,-2.7245,-2.7235,-2.7203,-2.7219,-2.7207,-2.7184,-2.7171,-2.7139,-2.7175,-2.7136,-2.7135,-2.7145,-2.7077,-2.7069,-2.7017,-2.7098,-2.7097,-2.7096,0,-2.739,-2.7367,-2.7308,-2.7291,-2.7278,-2.725,-2.7224,-2.7198,-2.7177,-2.7172,-2.7152,-2.7154,-2.7118,-2.7141,-2.7091,-2.7116,-2.71,-2.7092,-2.709,-2.7087,-2.7113,-2.7073,-2.7,-2.6993,-2.7084,-2.7085,-2.7086,0,-2.7341,-2.7295,-2.7255,-2.7244,-2.7221,-2.7202,-2.7191,-2.7171,-2.7154,-2.713,-2.7119,-2.709,-2.7074,-2.7052,-2.7046,-2.7063,-2.6997,-2.7019,-2.6993,-2.6993,-2.6978,-2.6979,-2.6903,-2.6966,-2.6966,-2.6967,-2.6967,0,-2.7273,-2.7237,-2.7233,-2.7209,-2.717,-2.7169,-2.713,-2.712,-2.7104,-2.7078,-2.7083,-2.7058,-2.7051,-2.7025,-2.702,-2.6981,-2.6973,-2.6969,-2.6968,-2.6969,-2.697,-2.6959,-2.6963,-2.6965,-2.6965,-2.6965,-2.6966,0,-2.7211,-2.7207,-2.7165,-2.7148,-2.7143,-2.7115,-2.7101,-2.7077,-2.7071,-2.7038,-2.703,-2.7019,-2.6989,-2.6982,-2.6944,-2.6941,-2.6896,-2.6898,-2.6904,-2.6904,-2.6879,-2.6882,-2.6794,-2.6783,-2.6852,-2.6851,-2.6851,0,-2.7169,-2.7142,-2.7124,-2.7109,-2.7098,-2.7072,-2.7056,-2.7054,-2.7037,-2.7013,-2.6993,-2.6964,-2.6941,-2.6892,-2.688,-2.6853,-2.6855,-2.6826,-2.6851,-2.6854,-2.6857,-2.6859,-2.6857,-2.6821,-2.6821,-2.682,-2.682,0,-2.7094,-2.7095,-2.7072,-2.705,-2.7031,-2.7012,-2.6994,-2.698,-2.6977,-2.6957,-2.6928,-2.6911,-2.6876,-2.6847,-2.682,-2.6808,-2.6814,-2.6812,-2.6805,-2.6806,-2.6812,-2.6811,-2.6893,-2.6814,-2.6815,-2.6815,-2.6815,-2.6816,-2.7042,-2.7021,-2.7006,-2.6981,-2.6969,-2.6953,-2.6932,-2.6924,-2.6901,-2.6874,-2.6874,-2.6843,-2.6825,-2.679,-2.6777,-2.6753,-2.6761,-2.675,-2.6747,-2.6745,-2.6744,-2.6816,-2.6747,-2.6747,-2.6748,-2.6748,-2.6748,0,-2.697,-2.6962,-2.694,-2.6917,-2.6898,-2.6908,-2.6889,-2.6872,-2.6846,-2.683,-2.6809,-2.6777,-2.675,-2.6738,-2.6712,-2.6695,-2.6697,-2.6688,-2.669,-2.6688,-2.6737,-2.6747,-2.6687,-2.6687,-2.6687,-2.6687,-2.6687,-2.6687,-2.6931,-2.6896,-2.6895,-2.6854,-2.6846,-2.6818,-2.6807,-2.6793,-2.6781,-2.6746,-2.6725,-2.6719,-2.6704,-2.6678,-2.6655,-2.6652,-2.6642,-2.6633,-2.6631,-2.6677,-2.6684,-2.6689,-2.6699,-2.6631,-2.6631,-2.6585,-2.6584,-2.6584]}]]